contact:dominique.lefevre@mio.osupytheas.fr, maurice.libes@osupytheas.fr
Project:EMSO Ligure-ouest http://www.emso-fr.org/EMSO-France
Sensor Aquadopp, line 13 Serial AQD14315 
DOI : "https://doi.org/10.17882/74513; https://doi.org/10.17882/83244" 
Title:EMSO Ligure Ouest : Data ligne ALBATROSS capteur AQUADOPP - deploiement 2021
Id,Date,Profondeur,Latitude,Longitude,X_East,Y_North,Z_Up,Amplitude_X,Amplitude_Y,Amplitude_Z,Batterie,SoundSpeed,Heading,Pitch,Roll,Pressure,Temperature,Speed,Direction
, , m, degrees North, degrees East, m.s-1, m.s-1,m.s-1, 1, 1, 1, Volt, m.s-1, degree, degree, degree, dbar, degree_C, m.s-1, degree
09,2023-01-21T23:30:00,2000.0,42.79,6.0312,-0.033,0.02,-0.016,62.0,57.0,58.0,12.4,1504.7,231.0,-1.2,1.1,1992.412,13.28,0.038,301.2
09,2023-01-22T00:00:00,2000.0,42.79,6.0312,-0.024,0.002,-0.01,59.0,55.0,59.0,12.4,1504.7,227.3,-1.1,1.1,1992.375,13.28,0.024,274.8
09,2023-01-22T00:30:00,2000.0,42.79,6.0312,-0.015,-0.001,0.024,57.0,54.0,58.0,12.4,1504.7,227.9,-1.2,1.2,1992.319,13.28,0.015,266.2
09,2023-01-22T01:00:00,2000.0,42.79,6.0312,-0.02,0.017,0.009,59.0,55.0,55.0,12.4,1504.7,226.2,-1.3,1.1,1992.339,13.28,0.026,310.4
09,2023-01-22T02:00:00,2000.0,42.79,6.0312,-0.012,0.024,-0.019,61.0,57.0,58.0,12.4,1504.7,233.9,-1.2,1.1,1992.344,13.28,0.026,333.4
09,2023-01-22T02:30:00,2000.0,42.79,6.0312,-0.03,0.015,0.006,59.0,57.0,60.0,12.4,1504.7,235.4,-1.2,1.1,1992.343,13.28,0.033,296.6
09,2023-01-22T03:00:00,2000.0,42.79,6.0312,-0.028,0.004,0.014,58.0,54.0,61.0,12.4,1504.7,235.0,-1.1,1.1,1992.356,13.28,0.028,278.1
09,2023-01-22T03:30:00,2000.0,42.79,6.0312,-0.019,0.016,0.005,57.0,56.0,58.0,12.4,1504.7,233.6,-1.2,1.1,1992.39,13.28,0.024,310.1
09,2023-01-22T04:00:00,2000.0,42.79,6.0312,-0.031,0.012,0.016,58.0,54.0,59.0,12.4,1504.7,233.4,-1.3,1.1,1992.408,13.28,0.033,291.2
09,2023-01-22T04:30:00,2000.0,42.79,6.0312,-0.031,0.007,0.015,56.0,56.0,57.0,12.4,1504.7,233.8,-1.3,1.1,1992.505,13.28,0.031,282.7
09,2023-01-22T05:00:00,2000.0,42.79,6.0312,-0.017,0.008,0.0,58.0,55.0,59.0,12.4,1504.7,240.0,-1.1,1.1,1992.508,13.28,0.018,295.2
09,2023-01-22T05:30:00,2000.0,42.79,6.0312,-0.015,0.004,0.006,58.0,55.0,57.0,12.4,1504.7,240.1,-1.2,1.2,1992.565,13.28,0.015,284.9
09,2023-01-22T06:00:00,2000.0,42.79,6.0312,-0.008,0.0,-0.013,60.0,57.0,57.0,12.4,1504.7,240.6,-1.1,1.1,1992.614,13.28,0.008,270.0
09,2023-01-22T06:30:00,2000.0,42.79,6.0312,0.0,0.007,0.003,58.0,57.0,58.0,12.4,1504.7,238.1,-1.2,1.1,1992.601,13.28,0.007,0.0
09,2023-01-22T07:00:00,2000.0,42.79,6.0312,-0.025,0.0,-0.011,57.0,55.0,63.0,12.4,1504.7,240.2,-1.1,1.0,1992.631,13.28,0.025,270.0
09,2023-01-22T07:30:00,2000.0,42.79,6.0312,-0.026,0.011,0.022,60.0,56.0,59.0,12.4,1504.7,241.1,-1.1,1.1,1992.65,13.28,0.028,292.9
09,2023-01-22T08:00:00,2000.0,42.79,6.0312,-0.025,-0.002,-0.01,57.0,56.0,57.0,12.4,1504.7,239.3,-1.2,1.1,1992.691,13.28,0.025,265.4
09,2023-01-22T08:30:00,2000.0,42.79,6.0312,0.0,0.0,0.0,56.0,60.0,60.0,12.4,1504.7,238.1,-1.1,1.2,1992.651,13.28,0.0,0.0
09,2023-01-22T09:00:00,2000.0,42.79,6.0312,-0.028,0.003,0.002,60.0,56.0,56.0,12.4,1504.7,237.3,-1.2,1.1,1992.694,13.28,0.028,276.1
09,2023-01-22T09:30:00,2000.0,42.79,6.0312,-0.019,0.015,0.002,59.0,58.0,58.0,12.4,1504.7,237.7,-1.1,1.1,1992.593,13.28,0.024,308.3
09,2023-01-22T10:00:00,2000.0,42.79,6.0312,-0.013,-0.011,-0.011,59.0,57.0,57.0,12.4,1504.7,237.9,-1.2,1.1,1992.637,13.28,0.017,229.8
09,2023-01-22T10:30:00,2000.0,42.79,6.0312,-0.008,-0.006,-0.008,63.0,62.0,66.0,12.4,1504.7,237.4,-1.2,1.2,1992.576,13.28,0.01,233.1
09,2023-01-22T11:00:00,2000.0,42.79,6.0312,0.011,0.005,-0.011,63.0,60.0,62.0,12.4,1504.7,238.4,-1.1,1.1,1992.568,13.28,0.012,65.6
09,2023-01-22T11:30:00,2000.0,42.79,6.0312,0.013,0.006,0.0,68.0,64.0,69.0,12.4,1504.7,239.6,-1.1,1.1,1992.55,13.28,0.014,65.2
09,2023-01-22T12:30:00,2000.0,42.79,6.0312,-0.005,-0.006,0.031,75.0,70.0,76.0,12.4,1504.7,240.9,-1.1,1.1,1992.496,13.28,0.007,219.8
09,2023-01-22T13:00:00,2000.0,42.79,6.0312,0.007,-0.001,0.002,75.0,69.0,74.0,12.4,1504.7,241.0,-1.1,1.1,1992.438,13.28,0.007,98.1
09,2023-01-22T13:30:00,2000.0,42.79,6.0312,0.002,-0.008,-0.031,74.0,71.0,73.0,12.4,1504.7,237.9,-1.1,1.1,1992.468,13.29,0.008,166.0
09,2023-01-22T14:00:00,2000.0,42.79,6.0312,-0.017,-0.001,0.021,74.0,73.0,73.0,12.4,1504.7,236.5,-1.0,1.1,1992.43,13.29,0.017,266.6
09,2023-01-22T15:00:00,2000.0,42.79,6.0312,0.008,0.004,-0.017,74.0,71.0,71.0,12.4,1504.7,233.9,-1.1,1.1,1992.414,13.29,0.008,63.4
09,2023-01-22T15:30:00,2000.0,42.79,6.0312,-0.002,-0.004,-0.028,73.0,70.0,79.0,12.4,1504.7,234.2,-1.1,1.1,1992.419,13.29,0.004,206.6
09,2023-01-22T16:00:00,2000.0,42.79,6.0312,0.008,0.004,0.027,76.0,73.0,74.0,12.4,1504.7,237.9,-1.1,1.1,1992.435,13.29,0.008,63.4
09,2023-01-22T16:30:00,2000.0,42.79,6.0312,-0.003,-0.015,-0.011,73.0,69.0,75.0,12.4,1504.7,239.8,-1.1,1.1,1992.429,13.29,0.015,191.3
09,2023-01-22T17:00:00,2000.0,42.79,6.0312,0.001,0.004,-0.004,74.0,71.0,72.0,12.4,1504.7,241.6,-1.1,1.1,1992.443,13.29,0.004,14.0
09,2023-01-22T17:30:00,2000.0,42.79,6.0312,0.009,-0.001,0.022,74.0,73.0,74.0,12.4,1504.7,239.9,-1.1,1.1,1992.484,13.29,0.009,96.3
09,2023-01-22T18:00:00,2000.0,42.79,6.0312,-0.015,-0.012,-0.026,71.0,72.0,75.0,12.4,1504.7,239.1,-1.1,1.1,1992.51,13.29,0.019,231.3
09,2023-01-22T18:30:00,2000.0,42.79,6.0312,-0.02,0.003,0.0,75.0,71.0,71.0,12.4,1504.7,241.5,-1.1,1.1,1992.506,13.29,0.02,278.5
09,2023-01-22T19:00:00,2000.0,42.79,6.0312,-0.023,0.0,0.013,75.0,73.0,73.0,12.4,1504.7,243.1,-1.1,1.1,1992.527,13.29,0.023,270.0
09,2023-01-22T19:30:00,2000.0,42.79,6.0312,0.001,0.023,-0.031,77.0,69.0,73.0,12.4,1504.7,243.1,-1.1,1.0,1992.565,13.29,0.023,2.5
09,2023-01-22T20:00:00,2000.0,42.79,6.0312,0.001,0.008,0.031,74.0,69.0,72.0,12.4,1504.7,242.8,-1.2,1.1,1992.527,13.29,0.008,7.1
09,2023-01-22T20:30:00,2000.0,42.79,6.0312,0.024,0.016,-0.021,75.0,68.0,75.0,12.4,1504.7,242.1,-1.2,1.1,1992.531,13.29,0.028,56.3
09,2023-01-22T21:00:00,2000.0,42.79,6.0312,0.006,0.001,0.003,73.0,73.0,75.0,12.4,1504.7,243.3,-1.2,1.0,1992.532,13.29,0.006,80.5
09,2023-01-22T21:30:00,2000.0,42.79,6.0312,0.015,0.013,0.006,76.0,69.0,75.0,12.4,1504.7,242.4,-1.2,1.1,1992.51,13.29,0.019,49.1
09,2023-01-22T22:00:00,2000.0,42.79,6.0312,0.015,0.009,-0.024,76.0,72.0,76.0,12.4,1504.7,238.9,-1.2,1.1,1992.497,13.29,0.017,59.0
09,2023-01-22T22:30:00,2000.0,42.79,6.0312,0.011,-0.011,0.009,72.0,72.0,72.0,12.4,1504.7,243.0,-1.2,1.1,1992.477,13.29,0.015,135.0
09,2023-01-22T23:00:00,2000.0,42.79,6.0312,0.018,0.0,0.006,74.0,69.0,75.0,12.4,1504.7,240.3,-1.2,1.1,1992.454,13.29,0.018,90.0
